This is the latest recevied weather packets stored in our database for station/object CA3EVY-3. If no packets are shown the sender has not sent any weather packets the latest 10 day(s).
| Time | Temp. | Humidity | Pressure | Rain* | Wind** | Luminosity | Snow |
|---|---|---|---|---|---|---|---|
| 1778102104 | 13.89° C | 75% | 919.2 hPa | - | - | - | - |
| 1778101204 | 13.89° C | 74% | 919 hPa | - | - | - | - |
| 1778100307 | 13.89° C | 74% | 919.3 hPa | - | - | - | - |
| 1778099403 | 13.89° C | 74% | 919.3 hPa | - | - | - | - |
| 1778098504 | 13.89° C | 74% | 919.3 hPa | - | - | - | - |
| 1778097604 | 14.44° C | 73% | 919.4 hPa | - | - | - | - |
| 1778096703 | 14.44° C | 73% | 919.4 hPa | - | - | - | - |
| 1778095803 | 14.44° C | 72% | 919.6 hPa | - | - | - | - |
| 1778094904 | 14.44° C | 72% | 919.6 hPa | - | - | - | - |
| 1778094004 | 14.44° C | 71% | 919.7 hPa | - | - | - | - |
| 1778093104 | 14.44° C | 71% | 919.7 hPa | - | - | - | - |
| 1778092203 | 13.89° C | 70% | 919.8 hPa | - | - | - | - |
| 1778091304 | 13.89° C | 70% | 919.7 hPa | - | - | - | - |
| 1778090404 | 14.44° C | 68% | 919.6 hPa | - | - | - | - |
| 1778089504 | 14.44° C | 68% | 919.6 hPa | - | - | - | - |
| 1778088604 | 14.44° C | 66% | 919.6 hPa | - | - | - | - |
| 1778087703 | 14.44° C | 66% | 919.7 hPa | - | - | - | - |
| 1778086805 | 15° C | 62% | 919.7 hPa | - | - | - | - |
| 1778085904 | 15° C | 62% | 919.1 hPa | - | - | - | - |
| 1778085003 | 15.56° C | 56% | 919.2 hPa | - | - | - | - |
| 1778084103 | 16.11° C | 56% | 918.9 hPa | - | - | - | - |
| 1778083204 | 16.67° C | 57% | 918.6 hPa | - | - | - | - |
| 1778082304 | 16.67° C | 57% | 918.3 hPa | - | - | - | - |
| 1778081404 | 16.11° C | 58% | 918.4 hPa | - | - | - | - |
| 1778080506 | 16.11° C | 58% | 918.4 hPa | - | - | - | - |
* Rain since midnight (hover to see other rain measurements)
** Current wind speed in m/s (hover to see current wind gust speed)